Dewpoint
-8 -12 -11 -11 -9 -9 -8 -7 -7 -9 -11 -9 -8 -8 -11 -12 -13 -12 -12 -15 -17 -15 -9 -2 2 7 10 11 12 12 12 8 11 9 10 8 10 11 13 12 11 9 8 5
-17 -8 -14 -10 -7 -5 -6 -6 -6 -8 -9 -7 -7 -8 -12 -13 -13 -13 -13 -13 -14 -15 -15 -4 4 9 11 11 12 12 12 11 10 5 6 8 11 9 11 12 11 11 10 6
-17 -15 -12 -9 -5 -4 -8 -6 -4 -4 -4 -5 -5 -4 -7 -9 -11 -13 -13 -15 -13 -13 -14 -12 5 10 12 12 12 12 12 10 10 3 7 12 12 10 9 10 10 10 11 9
-20 -18 -13 -11 -7 -11 -6 -7 -4 -4 -3 -2 -8 -5 -10 -14 -15 -15 -15 -13 -14 -14 -13 -14 1 10 12 12 13 13 12 11 8 6 11 11 10 9 7 6 10 10 11 11
-17 -17 -14 -11 -10 -11 -6 -7 -5 -4 -3 -3 -4 -2 -7 -11 -12 -13 -14 -17 -15 -15 -14 -14 -5 7 13 13 12 13 13 12 12 11 10 10 10 9 8 6 9 10 10 11
-16 -18 -9 -10 -12 -11 -8 -7 -6 -5 -3 0 -3 -4 -6 -10 -11 -14 -16 -16 -17 -16 -14 -14 -9 5 10 12 13 13 12 12 12 12 9 6 9 8 7 6 6 9 9 10
-15 -17 -16 -13 -7 -11 -6 -5 -4 -5 1 0 -7 -6 -6 -8 -11 -15 -13 -11 -6 -3 -15 -14 -13 2 9 11 13 13 13 13 12 12 10 4 3 6 7 6 -0 6 7 8
-11 -12 -11 -14 -8 -6 -5 -3 -0 1 -4 -3 -7 -3 0 -0 1 1 3 2 -2 2 3 -5 -9 -0 7 10 13 13 13 13 13 12 11 8 0 2 6 4 2 -5 0 5
-9 -10 -15 -14 -13 -7 -6 -5 -6 2 -3 -1 -5 -5 -2 -4 -2 -2 -0 1 2 4 5 6 5 6 6 10 13 13 13 14 13 12 12 11 8 -1 2 4 1 -2 -2 1
-13 -10 -14 -14 -15 -6 -10 -10 -3 -4 1 2 -1 2 1 -1 -0 -2 -1 -0 1 3 5 7 8 7 9 9 11 13 13 14 13 12 12 11 10 4 -3 1 -1 2 1 1
-12 -12 -13 -14 -9 -8 -8 -8 -5 -3 -1 1 2 2 0 -1 1 -0 -1 -1 -0 1 3 5 8 9 8 10 11 13 13 13 13 13 12 12 11 8 2 -0 -0 -2 0 1
-12 -10 -9 -11 -14 -10 -12 -8 -6 -1 -5 -1 0 1 -2 -1 0 -1 -1 -1 -0 0 1 2 4 9 10 9 11 12 13 13 13 13 12 12 11 9 6 4 4 2 2 5
-7 -8 -7 -12 -11 -11 -11 -10 -5 -4 0 1 -0 -0 -3 -4 -2 -2 -1 -1 -1 -1 -1 -0 2 5 9 11 10 12 13 13 13 13 12 12 11 10 8 3 5 7 3 5
-10 -9 -8 -6 -8 -10 -8 -4 -6 -4 -2 -1 -3 -2 -4 -3 -2 -2 -2 -2 -1 -1 -2 -1 -0 2 4 10 11 12 12 12 12 13 13 12 12 11 10 8 7 6 7 8
-11 -9 -11 -13 -13 -11 -3 -3 -3 -4 -3 -3 -3 -3 -3 -3 -2 -3 -2 -2 -2 -2 -2 -2 -2 -0 3 5 10 12 12 12 12 13 13 12 12 12 11 10 8 9 9 7
-19 -15 -17 -14 -13 -7 -7 -8 -5 -5 -4 -6 -7 -5 -4 -5 -3 -4 -4 -3 -3 -2 -2 -2 -2 -1 1 3 4 7 11 12 12 12 12 12 12 12 11 11 10 10 9 8
-19 -20 -18 -13 -13 -10 -7 -4 -5 -7 -6 -5 -5 -4 -5 -5 -4 -4 -4 -3 -3 -3 -2 -2 -2 -2 -1 2 2 3 6 10 11 12 12 12 12 12 12 11 11 11 11 9
-21 -20 -20 -12 -10 -6 -9 -11 -5 -7 -11 -10 -10 -7 -8 -7 -5 -5 -4 -4 -3 -3 -3 -2 -2 -2 -2 -0 -0 2 3 5 8 10 11 11 11 11 11 11 11 11 11 11
-21 -14 -10 -6 -6 -7 -13 -14 -6 -6 -11 -13 -11 -7 -7 -8 -10 -10 -6 -5 -4 -3 -4 -3 -2 -2 -2 -1 -1 -1 1 2 4 5 7 9 10 11 11 11 11 11 11 11
-20 -18 -11 -8 -8 -8 -8 -15 -15 -14 -9 -13 -13 -10 -8 -8 -6 -6 -10 -8 -5 -4 -3 -4 -3 -2 -3 -2 -2 -1 -2 -1 0 2 3 5 7 9 10 10 10 11 11 11
-16 -16 -12 -11 -6 -8 -12 -15 -17 -11 -7 -13 -13 -11 -10 -8 -8 -11 -12 -12 -10 -7 -4 -4 -6 -7 -4 -2 -3 -2 -1 -1 -4 -2 1 3 4 6 7 8 9 9 9 9
-15 -12 -13 -12 -11 -8 -15 -15 -9 -11 -15 -15 -15 -13 -13 -13 -14 -15 -15 -15 -13 -12 -9 -8 -5 -6 -8 -6 -2 -4 -5 -3 -2 -3 -7 -0 2 3 4 5 6 8 8 9
-14 -12 -8 -10 -13 -16 -19 -18 -17 -17 -17 -17 -17 -16 -16 -17 -17 -17 -16 -17 -17 -15 -13 -12 -8 -5 -7 -9 -8 -5 -5 -4 -7 -4 -3 -7 -3 -0 2 3 4 5 5 6
-17 -15 -16 -16 -19 -19 -20 -19 -18 -17 -16 -17 -17 -17 -17 -17 -17 -18 -18 -18 -18 -18 -17 -14 -12 -11 -9 -10 -9 -8 -7 -9 -7 -8 -8 -3 -5 -6 -3 -3 -0 2 3 3
-16 -15 -16 -20 -21 -19 -20 -19 -17 -18 -17 -17 -17 -16 -16 -16 -16 -16 -17 -17 -17 -18 -17 -17 -15 -14 -12 -11 -11 -11 -9 -8 -8 -9 -9 -7 -3 -5 -6 -8 -6 -4 -2 0
-16 -14 -16 -17 -17 -18 -18 -17 -18 -18 -18 -17 -16 -16 -16 -16 -15 -15 -15 -15 -16 -16 -16 -18 -18 -16 -14 -13 -12 -11 -10 -10 -9 -10 -10 -10 -7 -4 -4 -3 -9 -10 -8 -6
Wind_Speed
5 6 9 13 13 16 19 21 25 22 20 22 23 26 24 23 25 21 27 27 25 24 19 20 28 32 33 34 37 38 36 46 44 44 40 36 26 28 36 32 28 34 31 35
2 8 13 12 12 12 16 21 25 21 15 12 18 25 24 25 28 31 30 29 30 26 26 23 25 31 36 37 39 38 37 44 47 47 42 36 27 28 28 39 31 31 31 35
9 8 11 12 8 16 19 19 19 19 18 22 23 28 27 30 33 35 33 39 35 34 30 28 27 32 35 40 44 43 40 44 47 46 39 28 27 26 28 30 41 35 34 36
5 9 10 13 10 19 17 14 19 20 16 15 13 18 19 15 16 20 32 35 39 37 36 32 30 33 39 40 42 42 43 38 43 43 36 35 38 36 35 38 33 33 34 34
11 9 11 15 12 21 16 20 24 24 20 19 24 13 18 16 17 21 21 32 39 39 37 34 33 35 36 39 43 44 41 38 38 41 41 41 37 35 32 33 33 34 36 36
13 4 3 9 19 18 15 24 24 22 16 13 27 17 17 16 21 21 19 22 31 35 35 33 33 31 34 34 42 45 46 43 39 41 46 48 43 36 33 36 37 37 38 39
12 3 10 11 21 13 22 19 8 7 7 13 12 11 18 18 18 19 12 18 14 21 33 28 31 31 34 36 43 46 47 49 44 43 47 50 49 44 39 41 45 40 41 40
12 4 12 17 11 10 14 12 6 8 9 13 18 7 6 25 29 33 29 26 15 17 15 18 27 31 34 37 42 45 48 47 47 44 50 49 50 50 44 43 44 49 50 46
12 9 24 11 15 6 10 14 17 7 18 13 10 12 21 28 26 28 31 29 23 21 18 15 16 19 33 35 36 47 47 46 45 48 51 51 51 53 51 46 46 47 48 47
12 18 12 9 14 5 12 10 8 6 6 7 6 8 13 28 28 28 27 30 31 27 24 20 16 18 20 33 36 39 44 40 45 48 52 52 52 52 53 51 49 45 45 45
19 10 10 21 12 14 9 9 6 7 7 5 7 6 14 21 19 26 26 34 32 32 28 23 18 14 20 24 34 36 42 40 41 42 50 52 52 52 53 52 51 50 47 46
8 8 13 20 13 3 9 10 10 7 6 7 7 4 19 22 19 28 34 35 33 31 30 28 22 8 8 24 31 36 39 41 38 37 37 49 47 45 49 48 46 46 46 40
9 5 12 12 6 4 17 17 16 15 13 5 5 6 19 26 23 30 34 35 33 35 36 36 37 31 15 3 25 31 33 36 35 35 35 38 44 40 46 48 45 39 43 40
16 13 15 12 16 15 14 11 18 16 5 8 11 14 24 26 24 30 35 42 40 35 37 40 44 40 36 11 9 19 28 30 33 36 36 37 39 48 45 42 42 43 41 37
10 13 16 17 18 14 15 13 16 18 15 10 14 14 23 22 19 32 34 46 42 42 44 46 45 45 41 30 9 12 16 24 30 35 38 35 36 37 42 43 44 41 41 39
17 12 17 18 14 15 16 19 15 18 17 14 14 13 22 31 26 37 42 44 42 42 43 46 47 50 48 42 31 13 14 21 22 32 34 36 35 38 37 42 46 46 41 38
15 14 13 15 11 5 11 18 15 15 18 18 18 19 25 24 25 32 39 42 40 45 44 43 46 47 50 43 43 36 20 13 22 25 31 33 34 36 36 36 39 41 42 39
17 15 9 11 10 10 9 17 11 7 19 19 19 19 21 24 23 27 39 39 45 46 45 46 47 47 48 48 48 44 37 27 15 18 24 28 31 31 32 35 37 35 38 34
15 10 6 6 7 6 26 27 17 9 19 23 22 21 29 31 27 32 42 39 40 33 43 44 41 42 45 43 44 45 47 43 35 26 13 18 29 31 33 33 32 33 33 37
14 10 8 9 13 10 14 23 20 13 9 31 29 27 29 33 18 17 39 36 37 41 36 37 36 35 43 45 37 44 47 46 45 38 29 16 12 20 24 28 31 32 33 33
14 10 12 12 5 11 17 25 15 17 14 28 30 29 28 19 23 31 35 35 33 32 32 33 35 36 34 36 44 40 35 41 41 38 36 31 21 15 14 16 18 20 21 22
10 8 6 8 8 9 21 19 13 11 20 23 27 29 29 26 28 31 32 34 34 34 34 31 28 32 32 31 25 35 35 33 31 35 40 36 33 26 17 13 15 17 18 20
5 5 5 5 5 5 14 15 17 18 20 23 26 28 29 30 28 29 29 28 30 29 30 32 30 30 33 28 27 21 29 31 28 27 31 33 35 32 29 22 17 16 15 18
2 5 3 3 9 12 11 18 19 20 20 24 25 27 28 29 30 28 28 29 28 28 28 27 28 28 27 29 28 25 24 22 21 26 28 22 23 29 31 29 27 25 18 12
3 5 4 3 7 13 12 18 21 22 24 25 26 28 30 30 31 29 29 28 26 26 26 24 24 24 24 24 22 21 18 18 21 22 19 20 17 22 21 22 25 26 27 21
6 0 4 5 11 12 17 21 22 26 28 28 28 30 30 30 30 30 30 29 29 27 26 24 22 22 22 20 21 22 23 21 18 16 16 17 15 14 13 14 17 17 18 18
Wind_Direction
36 71 25 337 316 294 288 280 277 278 281 278 269 272 273 276 271 259 263 263 263 258 245 232 221 214 208 206 203 198 201 202 201 204 203 199 190 191 200 186 191 189 187 188
156 53 358 328 318 317 297 283 279 290 281 268 271 268 261 256 257 259 261 261 257 256 247 236 222 211 205 204 203 200 201 203 203 207 207 202 193 193 194 200 188 193 191 192
33 23 342 331 317 332 321 298 288 293 311 284 271 269 262 256 257 257 256 254 253 250 247 238 223 214 205 203 203 200 198 202 205 207 204 195 194 193 188 197 203 195 194 194
42 349 344 334 333 339 313 325 313 295 292 275 283 278 270 281 264 249 242 248 245 245 240 238 223 215 210 206 204 202 199 199 203 202 194 195 193 193 195 196 198 198 197 195
8 327 335 337 336 325 307 310 289 284 269 269 265 255 271 270 257 256 254 246 250 246 244 235 229 218 215 210 206 204 200 200 200 200 198 195 198 197 195 193 195 196 200 200
343 305 316 347 332 317 320 312 284 254 250 259 255 252 271 258 261 262 267 261 253 248 252 244 234 222 215 213 207 208 204 201 201 200 201 205 202 194 195 192 195 198 202 202
341 31 8 6 341 334 337 344 321 246 190 248 271 239 256 278 278 286 308 303 316 306 256 254 239 220 217 212 213 211 208 207 202 202 206 211 213 202 198 197 202 198 200 204
344 320 12 332 337 311 318 341 328 305 311 312 309 243 41 13 8 3 348 330 298 299 309 278 239 222 218 214 214 209 208 203 205 205 212 216 216 216 206 209 207 210 208 206
320 302 320 305 325 331 338 342 312 263 257 261 245 320 43 1 2 356 344 343 335 326 317 305 274 246 218 217 213 213 208 205 207 209 212 216 217 218 216 214 215 215 212 210
319 307 294 325 317 181 320 328 333 339 286 299 337 62 4 358 355 354 348 339 337 333 328 318 293 254 232 220 218 217 208 210 208 212 216 216 218 219 220 219 220 214 213 211
313 257 285 310 336 316 327 349 333 289 258 296 326 65 5 351 348 354 347 342 337 336 340 339 331 268 239 225 218 215 214 211 210 212 219 221 220 221 219 220 223 222 218 215
334 295 291 305 295 180 343 346 332 293 290 294 268 101 9 350 344 357 348 338 340 347 350 358 358 335 285 225 216 216 216 211 213 211 211 218 219 216 217 217 217 220 219 214
326 286 314 308 164 239 343 347 357 316 254 348 359 20 355 346 356 354 353 342 354 359 359 7 18 23 21 221 216 214 216 215 213 213 214 215 217 212 214 219 217 215 219 218
309 283 285 287 302 300 294 10 25 12 9 324 23 348 349 348 360 355 355 352 3 3 7 13 15 21 22 49 170 203 217 218 216 210 210 219 226 228 221 217 215 217 218 215
356 307 336 308 284 279 40 34 31 37 22 18 5 13 356 350 356 357 355 2 360 4 11 13 11 16 25 36 87 178 189 208 213 210 209 213 230 225 221 220 222 216 213 218
348 325 319 300 282 101 58 19 13 33 29 21 17 23 351 351 353 359 5 6 0 359 7 10 13 17 25 30 42 63 174 194 193 203 207 211 220 217 218 217 222 226 229 230
344 328 316 295 319 223 36 2 346 36 35 15 17 358 349 353 354 4 359 4 357 7 359 10 14 16 21 33 38 47 63 158 191 194 205 213 216 219 224 226 223 226 227 228
334 326 292 296 307 70 25 17 351 35 41 26 11 4 360 354 355 7 8 4 3 6 3 10 16 16 22 33 39 45 55 69 116 173 191 197 213 228 228 227 226 228 226 219
347 341 319 312 31 84 17 8 2 53 35 15 9 5 357 350 355 14 7 4 6 3 11 16 17 18 22 29 32 41 44 53 62 68 97 172 195 205 215 221 223 225 224 222
15 4 14 9 64 44 360 355 342 315 15 358 4 5 3 359 10 359 357 2 1 5 11 5 9 14 29 24 23 32 43 41 47 52 58 79 149 188 198 204 210 217 219 224
19 14 19 25 33 55 4 10 2 29 345 349 355 1 6 9 356 349 355 1 4 3 2 11 11 18 15 10 23 28 29 33 42 41 48 62 70 106 141 170 181 194 199 204
18 348 22 20 18 23 2 26 29 352 347 353 350 350 349 354 352 352 355 355 358 0 2 3 5 13 20 17 23 21 30 31 27 30 39 44 57 65 80 116 139 156 167 185
32 12 335 29 23 2 14 15 8 357 347 344 341 338 338 339 343 342 344 349 349 356 358 359 6 10 12 16 21 8 26 26 26 33 33 41 38 51 67 76 96 114 140 156
94 352 351 276 22 350 357 357 354 348 342 335 331 329 330 329 330 331 333 336 340 344 350 354 359 2 1 6 10 13 17 15 21 27 35 35 40 47 42 49 58 82 88 99
330 285 311 255 12 336 348 348 346 341 339 335 332 328 325 324 323 323 323 324 327 330 335 343 345 348 356 358 4 7 4 5 14 23 24 29 36 42 52 49 42 44 55 71
220 260 302 332 328 325 328 332 331 332 331 333 330 327 325 321 318 318 316 315 317 317 322 324 329 333 337 347 350 355 1 6 6 12 15 17 28 33 36 42 53 62 56 44
Height
1482 1477 1486 1490 1488 1483 1478 1469 1456 1449 1445 1444 1439 1433 1429 1426 1421 1422 1420 1418 1415 1415 1416 1419 1423 1428 1433 1439 1444 1447 1450 1455 1462 1468 1474 1481 1490 1496 1500 1505 1511 1515 1521 1525
1473 1482 1492 1492 1484 1482 1473 1463 1449 1444 1440 1441 1433 1422 1421 1420 1414 1416 1415 1413 1411 1410 1411 1412 1416 1420 1424 1430 1435 1441 1445 1451 1456 1461 1469 1478 1486 1492 1497 1502 1508 1513 1518 1522
1483 1492 1494 1488 1480 1480 1473 1466 1455 1450 1447 1439 1432 1418 1413 1408 1410 1409 1408 1405 1405 1403 1403 1405 1409 1413 1418 1422 1426 1432 1438 1442 1450 1456 1465 1476 1482 1489 1492 1498 1501 1508 1513 1517
1491 1495 1493 1487 1480 1486 1474 1464 1461 1457 1450 1429 1413 1403 1394 1389 1389 1392 1396 1396 1394 1394 1395 1397 1399 1405 1409 1414 1421 1427 1431 1434 1441 1451 1459 1466 1471 1476 1482 1488 1497 1503 1509 1513
1497 1495 1492 1487 1490 1486 1473 1467 1459 1449 1441 1432 1416 1415 1391 1391 1387 1385 1384 1387 1386 1387 1387 1389 1391 1395 1402 1410 1413 1419 1426 1432 1437 1443 1450 1458 1466 1472 1477 1483 1492 1498 1503 1509
1499 1497 1494 1493 1492 1481 1471 1454 1434 1424 1427 1424 1398 1403 1387 1383 1381 1378 1378 1378 1378 1381 1381 1382 1385 1391 1397 1404 1408 1411 1417 1424 1431 1436 1442 1448 1457 1464 1471 1475 1482 1490 1496 1503
1494 1489 1494 1495 1491 1479 1474 1452 1416 1398 1406 1398 1381 1387 1377 1379 1378 1377 1379 1378 1378 1378 1377 1377 1379 1384 1390 1395 1399 1404 1409 1415 1422 1428 1434 1441 1449 1457 1463 1467 1472 1482 1489 1495
1504 1487 1497 1497 1499 1497 1477 1475 1469 1449 1402 1395 1392 1385 1397 1406 1400 1397 1396 1385 1381 1382 1379 1375 1374 1376 1382 1387 1391 1396 1401 1409 1414 1420 1425 1434 1442 1449 1456 1460 1466 1473 1479 1486
1514 1505 1499 1494 1494 1493 1485 1476 1475 1465 1435 1424 1399 1385 1390 1416 1418 1418 1411 1404 1394 1389 1384 1379 1375 1373 1375 1381 1385 1388 1393 1400 1407 1410 1417 1425 1432 1440 1446 1454 1461 1467 1474 1480
1523 1513 1496 1494 1488 1491 1487 1484 1476 1461 1445 1416 1383 1429 1440 1432 1430 1426 1421 1414 1405 1396 1388 1380 1375 1371 1370 1374 1379 1383 1389 1395 1400 1404 1410 1416 1422 1430 1438 1447 1453 1460 1468 1475
1525 1513 1497 1492 1488 1493 1482 1481 1487 1479 1465 1440 1423 1446 1463 1457 1447 1439 1430 1420 1410 1398 1388 1378 1370 1368 1366 1367 1372 1376 1382 1390 1395 1398 1402 1408 1416 1423 1431 1438 1446 1453 1461 1467
1526 1519 1505 1490 1486 1487 1484 1484 1484 1478 1457 1457 1450 1454 1470 1463 1452 1444 1436 1424 1411 1400 1389 1378 1370 1362 1359 1360 1364 1370 1375 1382 1388 1394 1399 1405 1411 1419 1425 1432 1440 1447 1454 1462
1529 1510 1506 1484 1479 1478 1484 1479 1484 1475 1461 1454 1442 1454 1472 1466 1455 1447 1439 1426 1410 1399 1389 1377 1367 1361 1356 1354 1360 1364 1369 1375 1384 1389 1393 1399 1405 1411 1418 1424 1433 1442 1447 1455
1528 1518 1515 1509 1501 1495 1489 1489 1489 1484 1469 1467 1479 1477 1477 1464 1457 1448 1439 1421 1409 1405 1395 1382 1371 1364 1359 1352 1354 1360 1366 1371 1377 1384 1388 1392 1398 1404 1410 1419 1427 1434 1441 1448
1530 1518 1512 1504 1496 1492 1499 1497 1495 1495 1494 1488 1490 1485 1484 1476 1468 1458 1447 1424 1416 1407 1397 1388 1380 1372 1366 1357 1354 1357 1361 1368 1373 1378 1382 1389 1394 1399 1405 1413 1421 1428 1436 1442
1531 1521 1511 1497 1486 1496 1500 1503 1500 1503 1501 1497 1493 1492 1492 1482 1470 1458 1446 1435 1427 1418 1406 1398 1389 1379 1371 1367 1362 1359 1361 1365 1368 1373 1378 1385 1390 1395 1399 1407 1413 1420 1428 1435
1533 1525 1512 1494 1484 1485 1501 1513 1510 1505 1508 1504 1495 1503 1496 1483 1473 1468 1455 1447 1442 1423 1420 1407 1400 1392 1382 1376 1371 1364 1362 1363 1366 1370 1376 1380 1384 1390 1395 1400 1406 1412 1418 1424
1533 1525 1511 1495 1486 1512 1520 1517 1512 1509 1506 1506 1504 1500 1495 1490 1484 1477 1463 1460 1442 1432 1428 1418 1407 1404 1394 1389 1380 1377 1370 1366 1365 1367 1371 1376 1381 1385 1390 1395 1400 1406 1411 1412
1532 1521 1514 1507 1498 1512 1507 1507 1511 1502 1503 1504 1502 1500 1493 1484 1475 1468 1466 1461 1456 1455 1436 1424 1425 1413 1407 1398 1392 1387 1379 1373 1369 1369 1371 1373 1376 1381 1385 1389 1395 1400 1405 1410
1531 1523 1517 1509 1511 1526 1530 1518 1510 1500 1493 1503 1504 1505 1498 1483 1467 1474 1469 1464 1459 1446 1443 1445 1431 1427 1415 1410 1406 1397 1391 1386 1378 1379 1378 1375 1377 1379 1382 1386 1390 1395 1400 1406
1536 1527 1524 1518 1519 1529 1531 1525 1512 1510 1521 1509 1503 1502 1504 1498 1495 1486 1475 1468 1464 1459 1450 1441 1438 1433 1425 1419 1409 1404 1408 1398 1399 1393 1389 1381 1379 1379 1382 1385 1389 1393 1398 1403
1543 1539 1532 1529 1531 1535 1534 1528 1529 1532 1523 1517 1509 1504 1500 1501 1495 1488 1480 1471 1465 1459 1453 1453 1451 1441 1435 1429 1427 1425 1413 1412 1408 1404 1397 1390 1388 1385 1385 1387 1390 1393 1397 1402
1546 1552 1548 1546 1541 1542 1538 1535 1534 1531 1526 1520 1515 1508 1501 1496 1497 1492 1487 1483 1475 1469 1462 1456 1448 1441 1440 1441 1433 1442 1416 1418 1420 1414 1405 1404 1397 1397 1393 1396 1397 1395 1398 1402
1548 1550 1544 1540 1541 1541 1538 1536 1535 1532 1529 1523 1517 1511 1505 1498 1493 1492 1489 1481 1477 1471 1465 1460 1453 1449 1447 1443 1437 1431 1428 1430 1430 1422 1412 1417 1415 1406 1405 1408 1402 1400 1404 1404
1550 1549 1545 1539 1539 1540 1537 1536 1534 1530 1527 1522 1517 1511 1505 1499 1492 1488 1484 1482 1480 1475 1470 1465 1459 1456 1451 1446 1447 1446 1445 1438 1429 1425 1427 1423 1422 1415 1417 1415 1413 1412 1409 1410
1547 1547 1541 1539 1542 1540 1536 1535 1531 1527 1523 1519 1514 1508 1502 1496 1490 1485 1480 1475 1472 1472 1471 1466 1464 1460 1456 1456 1450 1442 1439 1438 1436 1432 1432 1430 1427 1426 1426 1423 1421 1420 1419 1419